Creek Data

    Home     View Charts     View Raw Data     Messages

ID Distance Battery Voltage Battery Current Internal Temp Internal Humidity External Temp Solar Input rssi snr Time Stamp Record
66474 14.5 3.77 -5 46 52 47 0.1 -70 9 02/16/2026 08:00 PM 49290
66473 14.5 3.76 -5 46 52 47 0 -71 8 02/16/2026 07:45 PM 49289
66472 14.5 3.90 -5 46 52 47 0 -70 8 02/16/2026 07:30 PM 49288
66471 14.5 3.77 -5 46 52 47 0 -69 9 02/16/2026 07:15 PM 49287
66470 14.5 3.90 -5 46 52 47 0 -69 8 02/16/2026 07:00 PM 49286
66469 14.6 3.77 -5 46 52 47 0 -69 8 02/16/2026 06:45 PM 49285
66468 14.6 3.78 -5 47 52 47 0.1 -69 9 02/16/2026 06:30 PM 49284
66467 14.6 3.91 -5 47 52 47 0.1 -70 8 02/16/2026 06:15 PM 49283
66466 14.6 3.77 -5 47 52 47 0 -71 8 02/16/2026 06:00 PM 49282
66465 14.6 3.78 -5 47 52 47 0.9 -69 9 02/16/2026 05:45 PM 49281
66464 14.6 3.76 -10 47 52 47 4.1 -69 8 02/16/2026 05:30 PM 49280
66463 14.6 3.94 0 47 52 47 4.5 -70 8 02/16/2026 05:15 PM 49279
66462 14.6 3.97 7 47 52 48 4.5 -70 8 02/16/2026 05:00 PM 49278
66461 14.6 3.98 10 48 52 48 4.5 -69 8 02/16/2026 04:45 PM 49277
66460 14.7 3.99 10 48 52 48 4.5 -69 8 02/16/2026 04:30 PM 49276
66459 14.7 3.87 0 49 51 49 5.1 -69 8 02/16/2026 04:15 PM 49275
66458 14.7 4.09 0 50 51 49 5.1 -70 8 02/16/2026 04:00 PM 49274
66457 14.7 3.98 0 50 51 49 5.1 -69 8 02/16/2026 03:45 PM 49273
66456 14.7 3.87 0 50 51 49 5.1 -70 8 02/16/2026 03:30 PM 49272
66455 14.8 3.87 0 50 50 50 5.1 -78 8 02/16/2026 03:15 PM 49271
66454 14.8 3.95 0 50 50 51 5.1 -72 8 02/16/2026 03:00 PM 49270
66453 14.8 3.87 0 49 51 49 5.1 -74 7 02/16/2026 02:45 PM 49269
66452 14.8 3.88 0 49 51 48 5.1 -80 7 02/16/2026 02:30 PM 49268
66451 14.8 3.88 0 48 51 48 5.1 -78 8 02/16/2026 02:15 PM 49267
66450 14.8 4.02 37 48 51 48 4.5 -78 7 02/16/2026 02:00 PM 49266